Whyalla, Australia

5:34 PM ACDT on December 10, 2016 (GMT +1030)
Whyalla

Weather History for 94664 - August, 2013

Change the Weather History Date:

Saturday, August 10, 2013

  Actual Average Record
Temperature  
Mean Temperature 50 °F -  
Max Temperature 62 °F - - ()
Min Temperature 39 °F - - ()
Degree Days  
Heating Degree Days 14    
Moisture  
Dew Point 47 °F    
Average Humidity 90    
Maximum Humidity 100    
Minimum Humidity 63    
Precipitation  
Precipitation 0.00 in - - ()
Sea Level Pressure  
Sea Level Pressure 30.06 in    
Wind  
Wind Speed 4 mph ()    
Max Wind Speed 9 mph    
Max Gust Speed -    
Visibility 6.0 miles    
Events      
T = Trace of Precipitation, MM = Missing Value Source: Averaged Metar Reports

Daily Weather History Graph

Daily Weather History Graph

Search for Another Location

Airport or City:

Trip Planner

Search our weather history database for the weather conditions in past years. The results will help you decide how hot, cold, wet, or windy it might be!

Date:

Astronomy

Aug. 10, 2013 Rise Set
Actual Time 7:03 AM ACST 5:48 PM ACST
Civil Twilight 6:37 AM ACST 6:13 PM ACST
Nautical Twilight 6:07 AM ACST 6:43 PM ACST
Astronomical Twilight 5:39 AM ACST 7:12 PM ACST
Moon 8:31 AM ACST 9:01 PM ACST
Length of Visible Light 11h 36m
Length of Day
10h 45m
Waxing Crescent, 10% of the Moon is Illuminated
Aug 10
Waxing Crescent
Aug 14
First Quarter
Aug 21
Full
Aug 28
Last Quarter
Sep 5
New

Hourly Weather History & Observations

Time (ACST) Temp. Windchill Dew Point Humidity Pressure Visibility Wind Dir Wind Speed Gust Speed Precip Events Conditions
12:30 AM 50.0 °F - 48.2 °F 94% 30.04 in 6.2 mi NW 4.6 mph - N/A   Unknown
1:30 AM 46.4 °F - 44.6 °F 93% 30.04 in 6.2 mi WNW 1.2 mph - N/A   Unknown
2:30 AM 42.8 °F 40.1 °F 42.8 °F 100% 30.06 in 6.2 mi WNW 4.6 mph - N/A   Unknown
3:30 AM 41.0 °F - 39.2 °F 93% 30.04 in 6.2 mi Calm Calm - N/A   Unknown
4:30 AM 39.2 °F 37.0 °F 39.2 °F 100% 30.04 in 6.2 mi West 3.5 mph - N/A   Unknown
5:30 AM 39.2 °F 35.0 °F 39.2 °F 100% 30.06 in 6.2 mi WNW 5.8 mph - N/A   Unknown
6:30 AM 39.2 °F 34.2 °F 39.2 °F 100% 30.06 in 6.2 mi NW 6.9 mph - N/A   Unknown
7:30 AM 41.0 °F 39.0 °F 41.0 °F 100% 30.09 in 6.2 mi NW 3.5 mph - N/A   Mostly Cloudy
8:00 AM 42.8 °F 39.3 °F 42.8 °F 100% 30.09 in 6.2 mi NW 5.8 mph - N/A   Scattered Clouds
8:02 AM 42.8 °F 39.3 °F 42.8 °F 100% 30.09 in 6.2 mi NW 5.8 mph - N/A   Scattered Clouds
8:03 AM 42.8 °F 39.3 °F 42.8 °F 100% 30.09 in 6.2 mi NW 5.8 mph - N/A   Mostly Cloudy
8:30 AM 46.4 °F 45.2 °F 46.4 °F 100% 30.09 in 6.2 mi NW 3.5 mph - N/A   Overcast
8:40 AM 48.2 °F - 48.2 °F 100% 30.09 in 3.1 mi NW 2.3 mph - N/A   Overcast
9:00 AM 50.0 °F - 50.0 °F 100% 30.09 in 4.3 mi Calm Calm - N/A   Overcast
9:02 AM 50.0 °F - 50.0 °F 100% 30.09 in 5.0 mi Calm Calm - N/A   Overcast
9:30 AM 55.4 °F - 53.6 °F 94% 30.09 in 6.2 mi West 1.2 mph - N/A   Mostly Cloudy
10:00 AM 59.0 °F - 53.6 °F 82% 30.12 in 6.2 mi ENE 4.6 mph - N/A   Mostly Cloudy
10:26 AM 59.0 °F - 53.6 °F 82% 30.12 in 6.2 mi East 3.5 mph - N/A   Scattered Clouds
10:30 AM 60.8 °F - 53.6 °F 77% 30.12 in 6.2 mi East 2.3 mph - N/A   Scattered Clouds
11:30 AM 62.6 °F - 51.8 °F 68% 30.09 in 6.2 mi East 4.6 mph - N/A   Unknown
12:30 PM 60.8 °F - 53.6 °F 77% 30.09 in 6.2 mi ESE 9.2 mph - N/A   Unknown
1:30 PM 62.6 °F - 51.8 °F 68% 30.06 in 6.2 mi SE 9.2 mph - N/A   Unknown
2:30 PM 62.6 °F - 50.0 °F 63% 30.04 in 6.2 mi SE 8.1 mph - N/A   Unknown
3:30 PM 62.6 °F - 50.0 °F 63% 30.04 in 6.2 mi SE 9.2 mph - N/A   Unknown
4:30 PM 60.8 °F - 51.8 °F 72% 30.01 in 6.2 mi East 8.1 mph - N/A   Unknown
5:30 PM 59.0 °F - 51.8 °F 77% 30.01 in 6.2 mi East 5.8 mph - N/A   Unknown
6:30 PM 53.6 °F - 50.0 °F 88% 30.01 in 6.2 mi SE 3.5 mph - N/A   Unknown
7:30 PM 51.8 °F - 50.0 °F 94% 30.04 in 6.2 mi SSW 3.5 mph - N/A   Unknown
8:30 PM 50.0 °F - 48.2 °F 94% 30.04 in 6.2 mi WSW 4.6 mph - N/A   Unknown
9:30 PM 46.4 °F 44.3 °F 46.4 °F 100% 30.04 in 6.2 mi WNW 4.6 mph - N/A   Unknown
10:30 PM 46.4 °F - 44.6 °F 93% 30.04 in 6.2 mi Calm Calm - N/A   Unknown
11:30 PM 42.8 °F 39.3 °F 42.8 °F 100% 30.01 in 6.2 mi NW 5.8 mph - N/A   Unknown